Location: Recife
(8.0585°S, 34.8848°W)
Time: 21:11:32
(UTC-03:00)

A-11 Canister half - Pass Details

Date: 17 April 2026
Orbit: 1515 x 1684 km, 47.2° (Epoch: 16 May)

Event Time Altitude Azimuth Distance (km) Brightness Sun altitude
Rises 16:03:09 0° 275° (W) 4,929 13.4 16.9°
Reaches altitude 10° 16:07:58 10° 256° (WSW) 3,947 12.5 15.7°
Maximum altitude 16:13:58 17° 219° (SW) 3,407 11.3 14.3°
Drops below altitude 10° 16:19:57 10° 182° (S) 3,926 11.1 12.8°
Sets 16:24:48 0° 162° (SSE) 4,891 11.3 11.7°
